TimeCST,TemperatureF,Dew PointF,Humidity,Sea Level PressureIn,VisibilityMPH,Wind Direction,Wind SpeedMPH,Gust SpeedMPH,PrecipitationIn,Events,Conditions,WindDirDegrees,DateUTC
12:16 AM,4.3,2.1,91,29.94,7.0,Calm,Calm,-,N/A,,Clear,0,2013-02-24 06:16:00
12:35 AM,3.9,1.9,91,29.95,7.0,Calm,Calm,-,N/A,,Clear,0,2013-02-24 06:35:00
12:55 AM,4.1,2.1,91,29.95,7.0,Calm,Calm,-,N/A,,Clear,0,2013-02-24 06:55:00
1:16 AM,1.6,-1.1,88,29.97,7.0,Calm,Calm,-,N/A,,Clear,0,2013-02-24 07:16:00
1:35 AM,2.3,-0.2,89,29.97,7.0,Calm,Calm,-,N/A,,Clear,0,2013-02-24 07:35:00
1:55 AM,1.6,-1.1,88,29.98,10.0,Calm,Calm,-,N/A,,Clear,0,2013-02-24 07:55:00
2:15 AM,0.3,-2.2,89,29.98,10.0,Calm,Calm,-,N/A,,Clear,0,2013-02-24 08:15:00
2:36 AM,2.3,0.1,91,29.98,10.0,Calm,Calm,-,N/A,,Clear,0,2013-02-24 08:36:00
2:55 AM,1.2,-1.1,90,29.98,10.0,Calm,Calm,-,N/A,,Clear,0,2013-02-24 08:55:00
3:15 AM,0.5,-1.8,90,29.98,5.0,Calm,Calm,-,N/A,,Clear,0,2013-02-24 09:15:00
3:36 AM,0.1,-2.9,87,29.98,7.0,Calm,Calm,-,N/A,,Clear,0,2013-02-24 09:36:00
3:56 AM,1.0,-1.3,90,29.98,7.0,Calm,Calm,-,N/A,,Clear,0,2013-02-24 09:56:00
4:15 AM,-0.9,-3.8,88,29.98,10.0,Calm,Calm,-,N/A,,Clear,0,2013-02-24 10:15:00
4:35 AM,-2.2,-5.3,87,29.98,10.0,Calm,Calm,-,N/A,,Scattered Clouds,0,2013-02-24 10:35:00
4:56 AM,0.3,-2.0,90,29.99,10.0,Calm,Calm,-,N/A,,Mostly Cloudy,0,2013-02-24 10:56:00
5:16 AM,-0.0,-2.4,90,29.99,10.0,Calm,Calm,-,N/A,,Mostly Cloudy,0,2013-02-24 11:16:00
5:35 AM,-0.8,-3.3,89,30.00,10.0,Calm,Calm,-,N/A,,Overcast,0,2013-02-24 11:35:00
5:55 AM,-0.4,-2.9,89,30.01,10.0,Calm,Calm,-,N/A,,Overcast,0,2013-02-24 11:55:00
6:16 AM,-0.8,-3.5,88,30.01,7.0,Calm,Calm,-,N/A,,Overcast,0,2013-02-24 12:16:00
6:35 AM,0.3,-2.2,89,30.02,7.0,Calm,Calm,-,N/A,,Overcast,0,2013-02-24 12:35:00
6:55 AM,0.7,-1.5,91,30.02,4.0,Calm,Calm,-,N/A,,Overcast,0,2013-02-24 12:55:00
7:16 AM,0.3,-2.2,89,30.02,3.0,Calm,Calm,-,N/A,,Overcast,0,2013-02-24 13:16:00
7:35 AM,0.9,-1.7,89,30.03,4.0,Calm,Calm,-,N/A,,Overcast,0,2013-02-24 13:35:00
7:55 AM,1.6,-0.9,89,30.03,5.0,Calm,Calm,-,N/A,,Overcast,0,2013-02-24 13:55:00
8:16 AM,3.6,1.4,91,30.03,2.5,Calm,Calm,-,N/A,,Overcast,0,2013-02-24 14:16:00
8:35 AM,3.9,1.6,90,30.04,0.2,Calm,Calm,-,N/A,Fog,Light Freezing Fog,0,2013-02-24 14:35:00
8:56 AM,5.2,3.0,91,30.04,0.8,Calm,Calm,-,N/A,,Overcast,0,2013-02-24 14:56:00
9:15 AM,8.2,6.6,93,30.04,0.8,Calm,Calm,-,N/A,Snow,Light Snow,0,2013-02-24 15:15:00
9:35 AM,8.2,6.4,92,30.05,4.0,Calm,Calm,-,N/A,,Overcast,0,2013-02-24 15:35:00
9:55 AM,10.2,8.4,92,30.06,2.5,Calm,Calm,-,N/A,,Overcast,0,2013-02-24 15:55:00
10:16 AM,12.7,11.5,95,30.07,3.0,Calm,Calm,-,N/A,,Mostly Cloudy,0,2013-02-24 16:16:00
10:35 AM,14.7,13.3,94,30.07,4.0,Calm,Calm,-,N/A,,Scattered Clouds,0,2013-02-24 16:35:00
10:55 AM,15.6,14.4,95,30.07,5.0,Calm,Calm,-,N/A,,Clear,0,2013-02-24 16:55:00
11:15 AM,17.4,16.3,96,30.07,5.0,Calm,Calm,-,N/A,,Clear,0,2013-02-24 17:15:00
11:36 AM,19.0,18.1,96,30.08,7.0,Calm,Calm,-,N/A,,Clear,0,2013-02-24 17:36:00
11:55 AM,20.8,19.6,95,30.08,7.0,Calm,Calm,-,N/A,,Clear,0,2013-02-24 17:55:00
12:15 PM,25.2,21.2,85,30.08,7.0,Calm,Calm,-,N/A,,Clear,0,2013-02-24 18:15:00
12:36 PM,27.7,20.3,74,30.08,10.0,SSE,4.6,-,N/A,,Clear,160,2013-02-24 18:36:00
12:55 PM,27.9,19.8,72,30.07,10.0,Calm,Calm,-,N/A,,Clear,0,2013-02-24 18:55:00
1:15 PM,28.8,20.1,70,30.07,10.0,South,3.5,-,N/A,,Clear,190,2013-02-24 19:15:00
1:36 PM,29.7,19.6,66,30.07,10.0,Calm,Calm,-,N/A,,Clear,0,2013-02-24 19:36:00
1:55 PM,30.0,19.6,65,30.07,10.0,Calm,Calm,-,N/A,,Clear,0,2013-02-24 19:55:00
2:15 PM,29.5,19.6,67,30.06,10.0,Calm,Calm,-,N/A,,Clear,0,2013-02-24 20:15:00
2:36 PM,29.3,20.1,69,30.06,10.0,Calm,Calm,-,N/A,,Clear,0,2013-02-24 20:36:00
2:55 PM,29.5,20.3,69,30.05,10.0,Calm,Calm,-,N/A,,Clear,0,2013-02-24 20:55:00
3:15 PM,30.0,19.4,65,30.05,10.0,South,3.5,-,N/A,,Clear,170,2013-02-24 21:15:00
3:35 PM,29.7,19.4,66,30.06,10.0,South,3.5,-,N/A,,Clear,170,2013-02-24 21:35:00
3:55 PM,29.7,19.6,66,30.05,10.0,Calm,Calm,-,N/A,,Clear,0,2013-02-24 21:55:00
4:16 PM,30.9,19.6,63,30.05,10.0,South,3.5,-,N/A,,Scattered Clouds,170,2013-02-24 22:16:00
4:35 PM,28.9,19.2,67,30.05,10.0,Calm,Calm,-,N/A,,Scattered Clouds,0,2013-02-24 22:35:00
4:55 PM,28.4,19.0,68,30.05,10.0,Calm,Calm,-,N/A,,Scattered Clouds,0,2013-02-24 22:55:00
5:16 PM,28.0,19.2,70,30.05,10.0,Calm,Calm,-,N/A,,Mostly Cloudy,0,2013-02-24 23:16:00
5:35 PM,25.9,18.9,75,30.05,10.0,Calm,Calm,-,N/A,,Scattered Clouds,0,2013-02-24 23:35:00
5:55 PM,24.8,18.5,77,30.05,10.0,Calm,Calm,-,N/A,,Mostly Cloudy,0,2013-02-24 23:55:00
6:16 PM,23.9,18.1,79,30.05,10.0,Calm,Calm,-,N/A,,Scattered Clouds,0,2013-02-25 00:16:00
6:35 PM,22.8,18.0,82,30.06,10.0,Calm,Calm,-,N/A,,Clear,0,2013-02-25 00:35:00
6:55 PM,19.6,15.8,85,30.06,10.0,Calm,Calm,-,N/A,,Clear,0,2013-02-25 00:55:00
7:16 PM,18.7,14.7,85,30.07,10.0,Calm,Calm,-,N/A,,Clear,0,2013-02-25 01:16:00
7:35 PM,16.0,13.5,90,30.07,10.0,Calm,Calm,-,N/A,,Clear,0,2013-02-25 01:35:00
7:55 PM,15.1,13.1,92,30.07,10.0,Calm,Calm,-,N/A,,Clear,0,2013-02-25 01:55:00
8:16 PM,14.9,12.7,91,30.07,10.0,Calm,Calm,-,N/A,,Clear,0,2013-02-25 02:16:00
8:35 PM,14.0,12.2,93,30.07,10.0,Calm,Calm,-,N/A,,Clear,0,2013-02-25 02:35:00
8:56 PM,11.5,10.2,95,30.07,10.0,Calm,Calm,-,N/A,,Clear,0,2013-02-25 02:56:00
9:16 PM,12.0,10.8,95,30.07,10.0,Calm,Calm,-,N/A,,Clear,0,2013-02-25 03:16:00
9:35 PM,12.6,11.3,95,30.08,7.0,Calm,Calm,-,N/A,,Clear,0,2013-02-25 03:35:00
9:56 PM,11.3,10.2,95,30.08,10.0,Calm,Calm,-,N/A,,Clear,0,2013-02-25 03:56:00
10:15 PM,10.4,8.8,93,30.08,7.0,Calm,Calm,-,N/A,,Clear,0,2013-02-25 04:15:00
10:35 PM,9.5,8.4,95,30.09,7.0,Calm,Calm,-,N/A,,Clear,0,2013-02-25 04:35:00
10:56 PM,8.1,7.0,95,30.09,7.0,Calm,Calm,-,N/A,,Clear,0,2013-02-25 04:56:00
11:15 PM,7.9,6.6,95,30.10,7.0,Calm,Calm,-,N/A,,Clear,0,2013-02-25 05:15:00
11:35 PM,7.7,6.8,96,30.09,7.0,Calm,Calm,-,N/A,,Clear,0,2013-02-25 05:35:00
11:56 PM,6.8,5.0,92,30.09,10.0,Calm,Calm,-,N/A,,Clear,0,2013-02-25 05:56:00